Temperature
9 9 9 9 9 9 10 10 10 10 10 10 10 11 11 11 11 11 11 11 11 11 11 11 12 12 12 12 12 12 12 12 12 12 12 12 12 12 13 13 12 12 13
9 9 9 9 9 9 9 9 9 9 9 9 10 10 10 10 10 10 10 10 10 11 11 11 11 11 11 11 11 11 12 12 11 11 11 11 12 12 12 12 12 12 12
8 9 9 8 8 8 8 8 8 8 9 9 9 9 9 10 10 10 10 10 10 10 10 10 11 11 11 11 11 11 11 11 11 11 11 11 11 11 12 12 12 12 12
8 8 8 8 8 8 8 8 8 8 8 8 8 9 9 9 9 9 9 10 10 10 10 10 10 10 10 10 10 10 11 10 10 10 10 10 11 11 11 11 11 11 11
8 8 8 8 8 8 8 8 8 8 8 8 8 8 8 8 8 8 9 9 9 9 9 10 10 10 10 10 10 10 10 10 10 10 10 10 10 10 10 10 10 11 11
8 8 7 7 7 7 7 7 7 7 8 8 8 8 8 8 8 8 8 8 9 9 9 9 9 9 9 9 9 9 9 9 9 9 9 9 9 9 9 9 9 10 10
7 7 7 7 7 7 7 7 7 7 7 7 7 7 7 7 7 7 7 8 8 8 8 8 8 9 8 9 9 9 9 9 9 9 9 9 9 9 8 8 8 9 9
7 7 7 7 6 6 6 6 7 7 7 7 7 7 7 7 7 7 7 7 7 7 8 8 8 8 8 8 8 8 8 8 8 8 8 8 8 8 8 8 8 8 8
7 7 7 6 6 6 6 6 6 6 6 6 6 6 6 6 6 6 6 6 7 7 7 7 7 7 7 8 8 7 8 8 8 8 7 7 7 7 7 7 7 7 6
7 7 7 6 6 6 6 6 6 6 6 6 6 6 6 6 6 6 6 6 6 6 6 6 7 7 7 7 7 7 7 7 7 7 7 7 7 7 6 6 6 6 5
7 7 7 6 6 6 6 6 6 6 6 6 6 6 6 6 6 6 6 6 6 6 6 6 6 6 6 6 6 6 6 6 6 6 6 6 6 6 6 6 5 5 5
7 7 7 6 6 6 6 6 6 5 5 6 6 5 5 5 5 5 5 5 5 5 5 6 6 6 6 6 6 6 6 6 6 6 6 6 6 5 5 5 5 5 4
7 7 7 6 6 6 6 6 5 5 5 5 5 5 5 5 5 5 5 5 5 5 5 5 5 5 5 5 5 5 5 5 5 5 5 5 5 5 5 5 4 4 4
7 7 7 7 6 6 6 5 5 5 5 5 5 5 5 5 5 5 5 5 5 5 5 5 5 5 5 5 5 5 5 5 5 4 4 4 4 4 4 4 3 3 3
7 7 7 7 6 6 6 5 5 5 5 5 5 5 5 4 4 4 4 5 5 5 5 4 4 4 4 4 4 4 4 4 4 4 4 4 3 3 3 3 3 2 2
7 7 7 7 6 6 6 5 5 5 5 5 5 5 4 4 4 4 4 4 4 4 4 4 4 4 4 4 3 4 4 3 3 3 3 3 3 3 3 2 2 2 1
7 7 7 7 6 6 6 6 5 5 5 5 5 4 4 4 4 4 4 4 4 4 4 4 4 3 3 3 3 3 3 3 3 3 3 2 2 2 2 2 2 1 1
8 7 7 7 6 6 6 5 5 5 5 5 4 4 4 4 4 4 4 3 3 3 3 3 3 3 3 3 3 3 3 2 2 2 2 2 2 2 2 1 1 1 1
8 7 7 7 6 6 6 5 5 5 5 5 4 4 4 4 4 3 3 3 3 3 3 3 3 3 2 2 2 2 2 2 2 1 1 1 1 1 1 1 0 0 0
8 7 7 7 6 6 6 5 5 5 5 4 4 4 4 4 3 3 3 3 3 3 2 2 2 2 2 2 2 1 1 1 1 1 1 1 0 0 0 -0 -0 -0 -1
7 7 7 7 6 6 5 5 5 5 5 4 4 4 4 3 3 3 3 3 2 2 2 2 2 2 1 1 1 1 0 0 0 0 0 0 -0 -1 -1 -1 -1 -1 -2
7 7 7 6 6 6 5 5 5 5 4 4 4 4 3 3 3 3 3 2 2 2 2 2 1 1 1 1 0 0 -0 -0 -0 -0 -1 -1 -1 -1 -1 -1 -2 -2 -2
7 7 6 6 6 6 5 5 5 5 4 4 4 4 3 3 3 3 2 2 2 2 1 1 1 1 0 0 -0 -0 -1 -1 -1 -1 -1 -1 -1 -2 -2 -2 -2 -2 -3
6 6 6 6 6 5 5 5 5 4 4 4 4 3 3 3 3 2 2 2 1 1 1 1 1 1 0 -0 -1 -1 -1 -1 -1 -1 -2 -2 -2 -2 -2 -3 -3 -3 -3
6 6 6 6 6 5 5 5 4 4 4 4 3 3 3 3 2 2 2 1 1 1 0 0 0 -0 -0 -1 -1 -1 -1 -2 -2 -2 -2 -2 -2 -2 -3 -3 -3 -3 -4
6 5 5 5 5 5 5 4 4 4 4 3 3 3 3 3 2 2 2 1 1 1 0 0 -0 -0 -1 -1 -1 -1 -2 -2 -2 -3 -3 -3 -3 -3 -3 -3 -4 -4 -4
Wind_Speed
4 4 4 5 5 5 5 5 5 5 4 3 3 3 3 3 3 2 3 4 4 4 3 3 4 4 5 5 5 5 5 5 3 3 3 3 5 5 5 5 5 5 7
4 5 5 5 5 5 6 5 5 5 4 3 3 3 3 3 2 2 3 3 3 3 3 3 3 4 4 5 5 5 4 4 4 3 2 3 3 4 5 5 6 6 4
4 5 5 5 5 6 6 6 6 5 4 4 3 3 2 2 2 2 2 3 3 3 2 2 3 3 4 4 5 5 5 5 4 4 3 3 5 2 2 4 5 5 4
4 4 5 6 5 5 6 6 5 5 4 3 2 2 3 3 3 2 3 3 3 3 3 2 2 3 3 3 4 4 4 5 4 3 3 2 2 3 2 2 3 3 4
5 5 5 5 5 5 5 5 5 5 4 3 2 2 3 3 3 2 3 3 3 2 2 2 1 2 2 3 3 3 4 4 4 3 2 2 2 2 3 3 2 2 3
6 6 5 5 5 5 5 5 5 5 5 4 3 2 3 3 3 3 3 2 2 2 3 2 1 1 2 2 2 2 3 3 3 3 3 2 2 2 2 3 3 3 3
5 5 5 5 5 5 5 5 5 6 5 4 3 3 3 3 3 3 2 2 2 2 3 2 2 2 1 2 1 1 2 2 3 3 3 3 2 1 2 3 3 3 2
5 6 5 5 5 5 5 5 5 6 5 4 4 3 2 2 2 2 2 2 2 2 2 2 2 2 2 1 0 1 1 1 2 2 2 2 1 1 2 2 2 3 3
6 6 5 4 5 5 5 5 5 5 5 4 4 3 2 1 1 1 1 1 2 2 2 2 2 2 1 1 0 0 0 1 1 2 2 2 1 1 1 1 2 3 4
5 6 5 4 4 4 4 4 4 4 4 4 3 2 2 2 1 1 1 1 1 1 2 2 2 2 1 1 1 0 1 1 1 1 1 1 1 1 1 1 2 2 4
7 6 5 4 3 3 3 3 3 3 3 3 3 3 2 2 1 1 1 1 1 1 1 1 1 1 1 1 1 1 1 1 1 1 1 1 1 1 1 1 2 2 3
6 6 5 4 3 3 3 3 3 3 3 3 2 2 2 2 2 2 2 1 1 1 1 1 1 1 1 1 1 1 1 1 0 0 1 0 0 1 1 2 2 3 3
6 5 4 4 4 4 4 3 3 3 3 2 2 2 2 2 2 2 2 1 1 1 1 1 1 1 1 1 1 0 0 0 0 0 1 1 0 1 2 2 2 2 3
6 6 5 5 5 4 4 3 3 3 2 1 1 2 2 2 2 2 2 1 1 1 1 1 1 1 1 1 1 0 0 0 1 1 1 1 2 2 3 2 3 3 3
7 7 7 6 5 4 4 3 3 2 1 1 1 2 2 2 2 1 1 1 1 1 1 1 2 2 1 1 0 0 0 0 1 1 1 1 2 3 3 3 3 2 3
9 8 7 7 6 6 5 4 4 3 2 2 2 2 1 1 1 1 1 1 2 2 2 2 1 2 2 3 2 1 0 0 1 1 2 2 2 3 4 5 4 4 4
10 9 8 8 7 7 5 5 5 3 2 3 2 2 1 1 1 1 1 1 1 1 2 2 1 2 2 3 2 2 1 0 1 1 2 2 2 3 3 4 5 5 6
9 8 7 7 6 5 5 4 3 3 3 3 3 2 1 1 1 0 0 1 1 0 1 1 1 2 3 4 3 3 2 1 1 2 2 2 3 3 3 3 3 3 4
8 7 7 6 5 5 5 4 4 4 4 4 4 3 3 2 2 1 1 1 0 0 1 1 1 1 3 4 4 3 1 1 2 2 2 2 3 5 5 3 3 4 4
6 5 5 4 5 5 5 5 5 5 6 6 5 4 3 3 3 3 2 1 1 0 0 1 1 1 2 3 3 2 1 1 2 2 3 4 5 5 6 3 3 4 5
5 5 5 5 6 5 6 6 6 8 7 5 4 4 3 4 3 2 2 1 1 1 0 1 2 2 2 3 3 2 1 0 1 2 3 3 6 6 6 5 3 4 5
5 4 5 6 5 6 7 7 8 7 5 5 4 4 4 3 3 3 2 1 2 1 1 1 2 2 2 3 2 2 2 1 0 1 2 3 6 7 6 5 5 6 5
6 5 5 6 5 6 7 9 8 5 5 5 5 4 4 3 3 3 3 2 2 1 1 1 2 2 1 2 3 3 3 2 1 1 3 5 6 6 5 5 6 5 3
7 5 5 6 7 6 8 9 6 5 6 6 6 5 4 4 3 3 3 3 3 3 3 2 2 2 2 2 2 2 2 2 2 1 3 5 5 5 5 5 4 3 3
6 6 7 8 8 7 7 7 6 6 6 6 6 5 5 4 4 3 4 4 4 5 4 4 3 2 3 3 3 1 1 1 1 1 1 2 3 3 3 3 3 3 3
6 7 8 8 8 7 7 7 7 7 7 6 6 5 4 4 4 3 2 5 5 6 7 6 4 4 4 4 4 3 3 2 1 1 1 1 2 2 3 3 4 3 3
Wind_Direction
293 319 334 336 337 338 337 331 330 328 334 334 330 322 312 303 298 301 307 295 285 272 251 247 233 221 224 227 221 221 221 222 201 216 246 248 231 225 222 214 216 221 223
314 324 335 344 341 331 330 326 322 320 322 319 305 287 286 286 283 300 319 314 304 291 269 240 239 234 229 227 224 218 223 220 194 192 207 249 256 238 225 213 218 225 214
287 307 323 327 332 331 323 318 312 312 314 316 317 318 309 306 312 315 312 316 320 305 289 265 244 237 231 232 226 216 219 227 211 198 194 202 226 238 233 220 220 216 214
283 294 306 316 322 317 318 315 313 314 316 315 317 316 306 292 288 293 297 308 320 313 302 290 263 243 238 243 240 225 220 216 218 212 223 227 196 198 243 251 232 219 222
272 283 293 300 309 315 320 319 321 320 319 311 289 283 285 284 296 306 304 307 313 315 314 306 287 263 252 247 241 232 218 217 219 210 207 226 240 226 218 252 258 251 238
274 282 291 301 308 319 324 324 325 324 323 315 300 267 272 285 296 301 302 308 311 321 332 338 334 311 280 263 250 227 213 210 215 217 209 200 203 211 216 238 249 251 250
268 277 287 298 306 316 322 324 326 325 328 323 314 293 274 272 269 271 272 287 303 318 322 335 340 336 319 304 273 212 212 203 197 212 225 222 229 218 222 232 252 262 267
265 267 271 280 290 300 313 320 321 319 324 325 319 311 301 295 290 288 280 280 290 298 312 325 328 324 325 323 302 208 221 194 193 202 212 219 240 240 242 231 230 260 264
263 263 266 271 279 293 300 302 308 313 319 320 320 328 331 324 312 312 301 292 300 306 323 321 321 318 325 333 261 228 221 189 201 200 204 219 232 233 249 250 227 232 259
267 267 263 263 272 283 291 302 306 304 315 323 323 331 337 338 327 317 300 298 299 307 321 319 322 327 342 2 81 187 187 171 221 202 176 220 245 238 239 243 250 237 242
262 261 258 257 264 281 288 298 307 314 323 323 328 337 332 336 339 325 314 307 311 316 304 312 328 348 359 19 65 62 80 87 60 79 128 225 245 239 266 259 252 249 242
257 257 254 257 264 276 285 288 291 300 305 313 324 328 332 342 346 331 319 321 325 324 318 313 345 4 3 19 71 55 61 95 89 83 115 313 338 283 269 256 253 252 251
261 257 253 250 252 261 268 273 273 282 295 311 328 331 336 342 334 325 326 333 333 342 358 360 3 356 349 16 35 69 85 108 204 200 201 249 235 266 271 270 266 263 267
257 254 252 248 246 250 251 256 267 269 278 297 313 319 320 321 323 330 337 344 5 33 36 25 7 358 3 20 15 70 87 2 322 299 263 247 238 247 257 266 262 264 265
255 249 247 244 242 241 247 248 258 264 267 272 286 295 311 327 338 350 351 6 28 27 27 31 9 360 356 2 28 156 98 349 343 336 330 315 305 298 286 283 276 273 265
251 247 243 240 237 234 236 235 242 247 233 232 256 278 315 327 328 335 357 28 32 21 21 13 2 359 357 8 10 25 69 33 347 325 325 318 317 322 319 309 304 292 279
247 242 237 232 232 229 223 227 232 230 219 226 239 245 245 279 303 330 13 20 11 23 17 356 355 349 343 360 5 14 65 40 315 301 310 326 332 338 308 311 322 316 309
245 242 235 232 229 219 215 217 214 210 216 226 233 234 223 238 261 286 327 327 346 11 345 339 341 344 346 360 13 29 50 43 356 333 312 302 306 309 315 316 319 313 310
241 236 228 224 217 214 206 193 205 209 214 224 229 227 215 212 209 216 238 257 100 8 338 345 353 350 342 1 12 19 42 30 1 348 340 326 307 323 332 327 313 314 316
242 232 220 211 213 215 187 187 206 209 222 225 224 218 208 204 210 213 210 196 172 226 337 347 356 347 330 343 356 12 61 21 350 347 344 342 339 337 335 326 314 310 314
244 224 209 212 218 203 182 200 212 222 225 217 210 206 204 205 209 205 194 182 170 127 12 325 331 328 323 330 339 352 37 337 329 334 335 333 341 341 341 341 330 317 329
249 224 217 227 220 197 192 210 224 227 213 200 201 207 207 205 195 187 189 169 160 164 241 289 311 310 311 323 323 340 347 355 0 312 314 321 338 344 347 347 343 342 347
245 232 225 235 229 209 201 216 229 212 197 196 205 209 204 202 190 184 186 172 168 186 234 239 265 289 293 306 323 330 334 338 345 300 319 332 343 349 351 350 351 354 353
242 234 224 232 238 224 218 223 223 199 194 203 209 203 198 201 198 194 189 186 194 205 220 231 247 268 287 284 290 295 309 317 324 330 337 349 355 357 353 352 355 353 343
241 228 227 234 239 231 229 226 213 194 200 208 210 204 200 198 200 203 206 207 214 208 212 218 217 226 253 257 253 250 258 260 275 347 6 8 357 352 350 351 352 350 349
241 236 235 237 239 230 232 227 210 197 200 210 211 207 203 201 200 203 228 231 224 232 233 228 223 237 244 257 252 255 265 285 297 357 347 330 328 322 326 331 335 338 338
Height
1500 1499 1498 1497 1496 1495 1494 1492 1491 1490 1489 1488 1487 1487 1486 1486 1487 1487 1487 1488 1488 1489 1490 1491 1492 1493 1494 1495 1497 1498 1498 1500 1502 1503 1504 1504 1505 1506 1507 1508 1509 1510 1511
1497 1496 1496 1495 1493 1492 1491 1489 1488 1487 1486 1485 1484 1483 1483 1482 1483 1483 1483 1484 1484 1485 1486 1486 1488 1489 1489 1490 1491 1493 1493 1494 1496 1497 1498 1498 1499 1499 1501 1502 1503 1504 1505
1495 1494 1493 1492 1491 1489 1488 1486 1485 1484 1483 1482 1481 1480 1479 1479 1479 1479 1479 1480 1480 1481 1481 1482 1483 1484 1485 1485 1486 1487 1488 1489 1490 1492 1494 1493 1492 1494 1494 1496 1497 1498 1499
1493 1492 1491 1490 1489 1487 1485 1484 1482 1481 1480 1479 1478 1476 1475 1475 1475 1475 1475 1476 1476 1477 1477 1478 1478 1479 1480 1480 1481 1482 1482 1484 1484 1486 1487 1489 1489 1490 1489 1490 1491 1492 1493
1491 1490 1489 1488 1486 1485 1483 1481 1479 1478 1477 1476 1475 1473 1472 1472 1471 1471 1471 1472 1472 1473 1473 1473 1474 1474 1474 1475 1475 1476 1477 1478 1479 1480 1481 1483 1484 1485 1485 1484 1485 1486 1487
1489 1488 1487 1486 1484 1483 1481 1479 1477 1475 1474 1473 1472 1470 1469 1469 1468 1468 1467 1468 1468 1468 1469 1469 1469 1469 1470 1470 1470 1471 1471 1472 1474 1475 1476 1477 1478 1479 1480 1480 1480 1480 1481
1486 1485 1485 1483 1482 1480 1479 1477 1475 1473 1471 1470 1468 1467 1466 1465 1465 1464 1464 1464 1464 1464 1465 1465 1465 1465 1465 1465 1466 1466 1466 1467 1468 1470 1471 1472 1473 1475 1476 1476 1475 1476 1476
1484 1483 1482 1481 1480 1478 1476 1474 1472 1470 1469 1467 1466 1464 1463 1462 1462 1462 1461 1461 1461 1461 1461 1461 1461 1461 1461 1462 1462 1462 1462 1462 1463 1465 1466 1467 1468 1469 1471 1471 1471 1471 1470
1481 1481 1480 1479 1477 1476 1474 1472 1470 1468 1466 1465 1463 1462 1461 1460 1459 1459 1459 1458 1458 1458 1458 1458 1458 1458 1458 1458 1458 1458 1458 1459 1460 1461 1462 1463 1463 1464 1466 1466 1467 1468 1466
1479 1478 1477 1476 1475 1473 1472 1470 1468 1466 1464 1463 1461 1460 1459 1458 1457 1457 1456 1456 1456 1455 1455 1455 1455 1454 1454 1454 1455 1455 1455 1456 1456 1457 1457 1458 1459 1460 1461 1461 1462 1462 1462
1476 1476 1475 1474 1473 1471 1470 1468 1466 1464 1463 1461 1459 1458 1457 1456 1455 1455 1454 1454 1453 1453 1452 1452 1452 1451 1451 1451 1451 1452 1452 1452 1453 1453 1454 1454 1455 1456 1456 1456 1456 1457 1456
1474 1473 1472 1471 1470 1469 1467 1466 1464 1463 1461 1460 1458 1457 1455 1454 1453 1453 1452 1452 1451 1451 1450 1450 1450 1449 1449 1449 1449 1449 1449 1449 1449 1449 1450 1451 1451 1452 1452 1452 1451 1451 1451
1471 1470 1469 1468 1467 1466 1465 1464 1462 1461 1459 1458 1456 1455 1454 1453 1452 1451 1450 1450 1449 1449 1448 1448 1448 1447 1447 1447 1446 1446 1446 1446 1446 1446 1446 1447 1447 1447 1448 1447 1447 1446 1446
1468 1467 1466 1465 1464 1463 1462 1461 1460 1459 1458 1456 1455 1454 1452 1452 1451 1450 1449 1448 1447 1447 1446 1446 1446 1445 1445 1444 1444 1444 1444 1443 1443 1443 1443 1443 1443 1443 1443 1443 1442 1442 1441
1464 1463 1462 1462 1461 1461 1460 1459 1458 1457 1455 1454 1453 1452 1451 1450 1449 1448 1447 1446 1445 1445 1444 1444 1444 1444 1443 1442 1442 1441 1441 1441 1440 1440 1440 1440 1440 1440 1439 1439 1438 1437 1436
1459 1459 1459 1458 1458 1457 1457 1456 1455 1454 1453 1452 1451 1450 1450 1449 1448 1447 1446 1445 1444 1443 1443 1442 1442 1441 1441 1440 1440 1439 1439 1438 1438 1437 1437 1437 1436 1436 1435 1435 1434 1433 1432
1455 1454 1454 1454 1454 1454 1454 1453 1453 1452 1451 1450 1449 1449 1448 1447 1446 1445 1444 1443 1442 1442 1441 1441 1440 1440 1439 1439 1438 1438 1437 1436 1436 1435 1434 1433 1433 1432 1431 1430 1429 1429 1427
1451 1451 1451 1451 1451 1451 1451 1450 1450 1449 1448 1448 1447 1447 1446 1445 1444 1444 1443 1442 1441 1440 1440 1439 1439 1438 1437 1437 1436 1435 1434 1434 1433 1432 1431 1430 1429 1428 1427 1426 1425 1423 1422
1448 1447 1447 1447 1447 1447 1447 1447 1447 1446 1445 1445 1444 1444 1444 1443 1442 1442 1441 1440 1440 1439 1438 1437 1437 1436 1435 1434 1434 1433 1432 1431 1430 1429 1428 1427 1426 1425 1423 1422 1421 1419 1418
1444 1444 1443 1443 1443 1443 1443 1443 1443 1443 1442 1442 1442 1442 1441 1441 1440 1440 1439 1439 1438 1437 1436 1436 1435 1434 1433 1432 1431 1431 1430 1429 1428 1427 1426 1424 1423 1421 1420 1419 1417 1415 1413
1440 1440 1439 1439 1440 1440 1440 1439 1439 1439 1439 1439 1439 1439 1438 1438 1437 1437 1437 1436 1436 1435 1434 1434 1433 1432 1431 1430 1429 1428 1427 1427 1425 1424 1423 1422 1420 1418 1417 1415 1413 1412 1410
1437 1436 1436 1435 1436 1436 1436 1435 1435 1435 1436 1435 1435 1435 1435 1435 1434 1434 1434 1433 1433 1432 1432 1431 1430 1430 1429 1428 1427 1426 1426 1425 1423 1422 1421 1419 1417 1415 1414 1412 1410 1409 1407
1433 1432 1432 1431 1431 1431 1431 1430 1431 1432 1432 1431 1431 1432 1432 1431 1431 1431 1430 1430 1430 1430 1429 1429 1428 1427 1427 1426 1425 1424 1423 1422 1421 1419 1418 1416 1415 1413 1411 1409 1407 1406 1404
1428 1428 1427 1426 1426 1426 1426 1426 1427 1427 1427 1427 1427 1427 1428 1428 1428 1427 1427 1427 1427 1426 1426 1426 1425 1425 1425 1424 1423 1422 1421 1420 1418 1417 1415 1414 1412 1410 1408 1407 1405 1403 1401
1423 1422 1422 1421 1421 1421 1421 1421 1422 1422 1422 1422 1423 1423 1423 1424 1424 1424 1424 1424 1424 1424 1424 1423 1423 1422 1421 1421 1421 1420 1418 1417 1416 1414 1413 1411 1409 1408 1406 1404 1403 1401 1399
1417 1416 1416 1415 1415 1415 1415 1416 1416 1416 1417 1417 1418 1418 1419 1419 1419 1420 1420 1420 1420 1420 1420 1420 1420 1419 1419 1418 1417 1417 1415 1414 1413 1412 1410 1408 1407 1405 1403 1402 1400 1399 1397